Location: Most
(50.5133°N, 13.6207°E)
Time: 20:37:48
(UTC+02:00)

ISS - Pass Details

Date: 26 September 2024
Orbit: 412 x 424 km, 51.6° (Epoch: 09 October)

Event Time Altitude Azimuth Distance (km) Brightness Sun altitude
Rises 20:41:43 0° 286° (WNW) 2,367 1.8 -17.7°
Reaches altitude 10° 20:43:55 10° 276° (W) 1,503 0.2 -18.0°
Maximum altitude 20:46:59 33° 211° (SSW) 733 -2.5 -18.5°
Enters shadow 20:47:40 30° 185° (S) 788 -2.6 -18.6°
